User: anonymous   Login
Location: Unspecified
(0.0000°N, 0.0000°E)
Time: 18:44:06
(UTC+00:00)
Language:

DOVE 4 - Orbit

View from above orbital plane
View from above orbital plane
View from above satellite
View from above satellite

Ground track
Ground track

The orbit data is extracted from the following two-line orbital elements,

1 39430U 13066Q   17145.53833809  .00000256  00000-0  55067-4 0  9992
2 39430 097.6646 146.3027 0153403 114.3320 247.3985 14.58854606186631
Epoch (UTC): 25 May 2017 12:55:12
Eccentricity: 0.0153403
inclination: 97.6646°
perigee height: 588 km
apogee height: 805 km
right ascension of ascending node: 146.3027°
argument of perigee: 114.3320°
revolutions per day: 14.58854606
mean anomaly at epoch: 247.3985°
orbit number at epoch: 18663

The dashed part of the orbit path shows where the satellite is in the earth's shadow,  

DLR